This is the latest recevied weather packets stored in our database for station/object DG6YGE-6. If no packets are shown the sender has not sent any weather packets the latest 1 day(s).
| Time | Temp. | Humidity | Pressure | Rain* | Wind** | Luminosity | Snow |
|---|---|---|---|---|---|---|---|
| 1777960151 | 10.56° C | 93% | 1009.5 hPa | 0 mm | 0.45 m/s, 119° | 25 W/m² | - |
| 1777959551 | 10.56° C | 93% | 1009.4 hPa | 0 mm | 0.45 m/s, 360° | 26 W/m² | - |
| 1777958951 | 10.56° C | 94% | 1009.2 hPa | 0 mm | 0.45 m/s, 130° | 27 W/m² | - |
| 1777958351 | 10.56° C | 94% | 1009.3 hPa | 0 mm | 0.89 m/s, 76° | 20 W/m² | - |
| 1777957751 | 10.56° C | 94% | 1009.1 hPa | 0 mm | 0.45 m/s, 111° | 13 W/m² | - |
| 1777957151 | 11.11° C | 94% | 1009.1 hPa | 0 mm | 0.45 m/s, 131° | 11 W/m² | - |
| 1777956551 | 11.11° C | 94% | 1009.2 hPa | 0 mm | 0.45 m/s, 125° | 12 W/m² | - |
| 1777955951 | 11.11° C | 93% | 1009.2 hPa | 0 mm | 0.45 m/s, 119° | 10 W/m² | - |
| 1777955351 | 11.11° C | 93% | 1009.2 hPa | 0 mm | 0.45 m/s, 119° | 5 W/m² | - |
| 1777954751 | 11.67° C | 94% | 1009.2 hPa | 0 mm | 0.45 m/s, 360° | 0 W/m² | - |
| 1777954151 | 11.67° C | 94% | 1009.2 hPa | 0 mm | 0.45 m/s, 90° | 0 W/m² | - |
| 1777953551 | 11.67° C | 94% | 1009.2 hPa | 0 mm | 0.45 m/s, 107° | 0 W/m² | - |
| 1777952951 | 12.22° C | 94% | 1009.3 hPa | 0 mm | 0.45 m/s, 360° | 0 W/m² | - |
| 1777952351 | 12.22° C | 94% | 1009.2 hPa | 0 mm | 0.45 m/s, 341° | 0 W/m² | - |
| 1777951751 | 12.22° C | 94% | 1009.3 hPa | 0 mm | 0.45 m/s, 146° | 0 W/m² | - |
| 1777951151 | 12.22° C | 94% | 1009.4 hPa | 0 mm | 0.45 m/s, 123° | 0 W/m² | - |
| 1777950551 | 12.78° C | 93% | 1009.3 hPa | 0 mm | 0.45 m/s, 360° | 0 W/m² | - |
| 1777949951 | 12.78° C | 93% | 1009.4 hPa | 0 mm | 0.45 m/s, 127° | 0 W/m² | - |
| 1777949351 | 13.33° C | 93% | 1009.4 hPa | 0 mm | 0.89 m/s, 32° | 0 W/m² | - |
| 1777948751 | 13.33° C | 93% | 1009.4 hPa | 0 mm | 0.45 m/s, 127° | 0 W/m² | - |
| 1777948151 | 13.89° C | 94% | 1009.6 hPa | 0 mm | 0.89 m/s, 340° | 0 W/m² | - |
| 1777947551 | 13.89° C | 94% | 1009.6 hPa | 0.25 mm | 0.89 m/s, 269° | 0 W/m² | - |
| 1777946951 | 13.89° C | 94% | 1009.6 hPa | 0.25 mm | 0.89 m/s, 130° | 0 W/m² | - |
| 1777946351 | 13.89° C | 94% | 1009.7 hPa | 0.51 mm | 0.89 m/s, 212° | 0 W/m² | - |
| 1777945751 | 13.89° C | 94% | 1009.6 hPa | 0.51 mm | 1.34 m/s, 219° | 0 W/m² | - |
* Rain latest hour (hover to see other rain measurements)
** Current wind speed in m/s (hover to see current wind gust speed)